User: anonymous   Login
Location: B?jaj?g
(11.7167°N, 92.6667°E)
Time: 03:26:47
(UTC+00:00)
Language:

CZ-3 Stage 3 - Orbit

View from above orbital plane
View from above orbital plane
View from above satellite
View from above satellite

Ground track
Ground track

The orbit data is extracted from the following two-line orbital elements,

1 16528U 86010B   20337.82939606 -.00000089  00000-0 -68861-4 0  9997
2 16528  30.6430 230.4840 7148967 184.9319 159.4682  2.31613281242378
Epoch (UTC): 02 December 2020 19:54:19
Eccentricity: 0.7148967
inclination: 30.6430°
perigee height: 501 km
apogee height: 35002 km
right ascension of ascending node: 230.4840°
argument of perigee: 184.9319°
revolutions per day: 2.31613281
mean anomaly at epoch: 159.4682°
orbit number at epoch: 24237

The dashed part of the orbit path shows where the satellite is in the earth's shadow,  

DLR